Location: Plymouth
(43.7490°N, 87.9770°W)
Time: 09:22:10
(UTC-06:00)

Daily predictions for brighter satellites

Satellite Brightness Start Highest point End
(mag) Time Altitude Azimuth Time Altitude Azimuth Time Altitude Azimuth
Cosmos 1354 Rocket 4.4 17:03:22 10° N 17:08:24 42° ENE 17:13:24 10° SE
ALOS 3.3 17:06:02 10° ESE 17:09:45 24° ENE 17:13:28 10° NNE
Cosmos 1461 3.7 17:07:09 10° SW 17:11:18 52° NW 17:15:42 10° NNE
SeaSat 1 3.7 17:06:42 10° S 17:11:26 47° WSW 17:16:13 10° NW
Cosmos 1943 Rocket 3.0 17:07:59 10° N 17:12:49 28° NE 17:17:34 10° ESE
Cosmos 2184 Rocket 4.4 17:13:13 10° NNW 17:19:35 73° W 17:25:55 10° S
Cosmos 1908 3.4 17:17:06 10° N 17:20:54 49° ENE 17:24:38 10° SSE
Ariane Rocket 3.0 17:16:38 10° SSE 17:21:41 84° ENE 17:26:47 10° NNW
NOSS 7 (E) 4.4 17:21:13 10° SSW 17:24:45 73° SE 17:28:01 10° NE
Cosmos 1809 Rocket 4.5 17:19:19 10° N 17:25:21 59° ENE 17:31:20 10° SSE
ERS-2 3.6 17:23:23 10° ESE 17:25:53 18° ENE 17:28:23 10° NNE
Cosmos-2242 4.3 17:22:27 10° NNW 17:26:30 43° W 17:30:32 10° SSW
Cosmos 1400 Rocket 4.0 17:23:24 10° SE 17:26:36 23° E 17:29:50 10° NE
Meteor 1-28 Rocket 3.2 17:25:48 10° NNE 17:29:38 88° W 17:33:26 10° SSW
YAOGAN 1 2.6 17:26:27 10° SSE 17:30:40 56° ENE 17:34:56 10° N
BREEZE-M R/B 3.9 17:30:53 10° SW 17:34:52 64° SE 17:47:12 12° ENE
SL-8 Rocket 4.4 17:29:11 10° N 17:34:56 39° ENE 17:40:40 10° SE
SL-16 R/B 3.5 17:29:39 10° SW 17:34:56 38° WNW 17:40:15 10° NNE
KORONAS-FOTON 4.0 17:31:45 10° SSE 17:35:24 46° E 17:39:04 10° NNE
H-2A R/B 4.2 17:33:40 10° ESE 17:36:06 17° ENE 17:38:33 10° NNE
Cosmos 1503 Rocket 4.0 17:30:52 10° NNW 17:36:12 72° ENE 17:41:32 10° SSE
NOAA 12 4.4 17:33:24 10° SE 17:38:17 41° ENE 17:43:11 10° N
FENGYUN 3A 3.9 17:33:32 10° SE 17:38:36 46° ENE 17:43:42 10° N
Meteor 2-21 4.4 17:36:19 10° N 17:42:27 75° E 17:48:29 10° SSE
ATLAS 5 CENTAUR R/B 4.2 17:41:58 10° NW 17:44:23 13° NNW 17:46:55 10° N
Lacrosse 5 rocket 3.8 17:41:51 10° WNW 17:45:40 29° SW 17:49:36 10° S
Cosmos 1603 3.8 17:42:13 10° SSW 17:47:58 81° WNW 17:53:46 10° NNE
CZ-4 R/B 2.0 17:43:49 10° S 17:47:59 65° W 17:52:13 10° NNW
USA 215 4.4 17:44:07 11° NE 17:49:06 28° N 17:54:26 10° WNW
Cosmos 1943 3.2 17:45:17 10° S 17:50:48 60° ESE 17:56:21 10° NNE
NOSS 7 (H) 4.3 17:50:27 10° SW 17:53:52 87° ESE 17:56:12 18° NE
Cosmos 1992 Rocket 3.9 17:50:36 10° S 17:55:44 68° ESE 18:00:56 10° NNE
EO 1 Del DPAF 3.6 17:55:21 11° NNE 17:58:47 43° E 18:02:26 10° S
CZ-2C R/B 4.0 17:55:02 10° N 17:59:48 76° WNW 18:04:28 10° SSW
Cosmos 1295 Rocket 4.4 17:54:56 10° N 18:01:03 86° E 18:07:12 10° S
Cosmos 1726 2.0 17:58:55 10° N 18:02:37 87° ENE 18:06:17 10° S
METEOR-M 4.5 17:58:57 10° S 18:04:16 69° WSW 18:09:38 10° NNW
Cosmos 2221 2.5 18:00:22 10° N 18:04:45 86° E 18:09:07 10° S
NOSS 2-1 (C) 3.3 18:01:10 10° SW 18:04:50 78° NW 18:07:42 19° NNE
NOSS 2-1 (D) 3.3 18:01:49 10° SW 18:05:28 76° NW 18:08:20 19° NNE
COSMO-SKYMED 1 2.5 18:02:42 10° NNE 18:07:05 89° SE 18:11:25 10° SSW
Cosmos 1408 Rocket 4.3 18:04:48 10° SSE 18:08:28 28° E 18:08:58 27° ENE
Cosmos 2366 rocket 4.0 18:08:32 10° N 18:14:44 58° ENE 18:20:49 10° SSE
Cosmos 2263 4.2 18:09:32 10° NNW 18:15:22 87° ENE 18:21:07 10° SSE
Cosmos 1674 4.2 18:12:42 10° SW 18:16:12 36° WNW 18:19:42 10° N
SL-14 R/B 3.2 18:13:07 10° S 18:17:05 67° E 18:20:13 16° NNE
Cosmos 968 Rocket 3.3 18:12:13 10° NNW 18:17:24 74° ENE 18:22:31 10° SSE
Landsat 4 3.8 18:14:39 10° N 18:18:25 75° WNW 18:22:08 10° SSW
Lacrosse 4 Rocket 4.1 18:17:30 10° WNW 18:18:45 11° NW 18:20:01 10° NNW
DMSP B5D1-3 4.4 18:14:22 10° NNE 18:19:28 68° ESE 18:24:31 10° S
ATLAS 2AS CENTAUR R/B 3.2 18:14:35 10° NW 18:22:31 73° WSW 18:29:48 10° SSE
Cosmos 1315 Rocket 2.8 18:24:43 10° S 18:28:34 55° E 18:29:12 49° ENE
Cosmos 2369 Rocket 3.0 18:24:44 10° NW 18:30:13 53° WSW 18:35:43 10° S
Meteor 2-10 4.4 18:26:28 10° NNW 18:31:26 63° W 18:36:26 10° S
Tiangong 1 2.0 18:30:39 10° WSW 18:32:19 36° WSW 18:32:19 36° WSW
NOSS 2-1 (E) 4.1 18:30:09 10° WSW 18:33:45 46° NW 18:35:44 25° NNE
Meteor 2-8 Rocket 4.3 18:27:44 10° S 18:33:50 74° E 18:40:00 10° NNE
Thor Agena Rocket 4.0 18:34:00 39° E 18:34:28 39° E 18:39:22 10° SSE
Envisat 4.5 18:37:56 21° NNE 18:37:56 21° NNE 18:39:53 10° N
Cosmos 1300 3.0 18:32:16 10° NNW 18:36:05 65° W 18:39:52 10° S
Meteor 1-27 4.4 18:33:23 10° N 18:38:53 49° ENE 18:44:26 10° SSE
Okean 3 Rocket 4.2 18:36:59 10° SSW 18:41:28 59° W 18:45:58 10° N
Cosmos 1076 Rocket 4.1 18:38:06 10° SSW 18:42:24 59° W 18:46:45 10° N
Meteor 1-11 4.2 18:38:56 10° S 18:44:20 55° E 18:46:15 37° NE
NOSS 3-4 (A) 3.8 18:38:01 10° NNW 18:44:52 57° NE 18:47:55 35° ESE
NOSS 3-4 (C) 3.9 18:38:06 10° NNW 18:44:58 57° NE 18:47:57 35° ESE
Cosmos 1626 3.5 18:42:59 10° S 18:44:48 27° S 18:44:48 27° S
ALOS 3.7 18:42:38 10° SSW 18:46:58 38° W 18:51:21 10° NNW
Cosmos 1766 Rocket 3.4 18:45:53 10° S 18:50:13 86° W 18:51:35 43° N
SPOT 3 Rocket 4.5 18:46:36 10° S 18:51:32 48° W 18:56:32 10° NNW
Meteor 2-2 Rocket 4.2 18:46:57 10° N 18:52:46 86° W 18:58:26 10° S
Cosmos 1943 Rocket 3.1 18:51:25 10° NW 18:56:47 48° WSW 19:02:04 10° S
Cosmos 1656 Rocket 3.4 18:52:35 10° NNW 18:58:04 76° ENE 18:59:26 51° SE
GEOS 3 Rocket 4.0 18:53:26 12° SSE 18:58:15 64° SW 19:03:37 10° NW
ERS-2 3.8 18:55:55 10° SSW 18:59:17 34° W 19:02:41 10° NNW
FengYun 1-2 T 4.4 18:54:39 10° S 19:00:17 73° WSW 19:05:56 10° NNW
Cosmos 1328 4.5 18:59:44 10° SSW 19:03:40 54° W 19:04:26 45° NW
H-2A R/B 4.1 19:06:31 10° SSW 19:10:02 38° W 19:13:39 10° NNW
Cosmos 1777 Rocket 4.1 19:18:07 10° NNW 19:23:21 72° WSW 19:23:21 72° WSW
Cosmos 2098 Rocket 3.9 19:24:15 10° NNW 19:28:54 62° W 19:34:46 10° S
USA 215 4.1 19:31:28 34° N 19:31:28 34° N 19:36:46 10° NW
